This demonstration page uses our WeatherBlox Daily Observations layout. Learn more.

36.17497, -115.13722

Hourly Observations for June 1, 2018

Temp ( °F °C ) Dew Point ( °F °C ) Humidity (%) Winds ( mph kmh ) Pressure ( in mb ) Visibility ( mi km ) Precip ( " mm )
12:53 am 00:53 Clear 75 23.9 28 -2.2 18 18 SSW 14 22 29.71 1006 10 16.09344 0 0
1:53 am 01:53 Clear 73 22.8 31 -0.6 21 21 S 9 15 29.74 1007 10 16.09344 0 0
2:53 am 02:53 Clear 70 21.1 32 0 25 25 ENE 3 6 29.77 1008 10 16.09344 0 0
3:53 am 03:53 Clear 69 20.6 31 -0.6 24 24 ENE 7 11 29.77 1008 10 16.09344 0 0
4:53 am 04:53 Clear 69 20.6 28 -2.2 22 22 NNW 9 15 29.83 1010 10 16.09344 0 0
5:53 am 05:53 Sunny 68 20 28 -2.2 22 22 NNW 12 19 29.85 1011 10 16.09344 0 0
6:53 am 06:53 Sunny 71 21.7 32 0 24 24 N 14 22 29.85 1011 10 16.09344 0 0
7:53 am 07:53 Sunny 73 22.8 32 0 22 22 E 6 9 29.88 1012 10 16.09344 0 0
8:53 am 08:53 Sunny 76 24.4 30 -1.1 18 18 N 5 7 29.91 1013 10 16.09344 0 0
9:53 am 09:53 Sunny 80 26.7 27 -2.8 14 14 Calm 29.91 1013 10 16.09344 0 0
10:53 am 10:53 Sunny 83 28.3 26 -3.3 12 12 NE 7 11 29.91 1013 10 16.09344 0 0
11:53 am 11:53 Sunny 84 28.9 25 -3.9 11 11 SE 6 9 29.91 1013 10 16.09344 0 0
12:53 pm 12:53 Sunny 87 30.6 24 -4.4 10 10 E 8 13 29.91 1013 10 16.09344 0 0
1:53 pm 13:53 Sunny 89 31.7 23 -5 9 9 Calm 29.91 1013 10 16.09344 0 0
2:53 pm 14:53 Sunny 90 32.2 22 -5.6 8 8 SE 8 13 29.88 1012 10 16.09344 0 0
3:53 pm 15:53 Sunny 91 32.8 21 -6.1 8 8 E 9 15 29.88 1012 10 16.09344 0 0
4:53 pm 16:53 Sunny 93 33.9 21 -6.1 7 7 NNW 6 9 29.85 1011 10 16.09344 0 0
5:53 pm 17:53 Sunny 92 33.3 21 -6.1 7 7 SE 8 13 29.85 1011 10 16.09344 0 0
6:53 pm 18:53 Sunny 91 32.8 20 -6.7 7 7 S 5 7 29.85 1011 10 16.09344 0 0
7:53 pm 19:53 Clear 90 32.2 20 -6.7 8 8 Calm 29.85 1011 10 16.09344 0 0
8:53 pm 20:53 Clear 89 31.7 23 -5 9 9 Calm 29.85 1011 10 16.09344 0 0
9:53 pm 21:53 Clear 85 29.4 28 -2.2 13 13 W 5 7 29.88 1012 10 16.09344 0 0
10:53 pm 22:53 Clear 81 27.2 31 -0.6 16 16 NNW 3 6 29.88 1012 10 16.09344 0 0
11:53 pm 23:53 Clear 79 26.1 30 -1.1 17 17 NNW 5 7 29.88 1012 10 16.09344 0 0

Powered by AerisWeather